Location: Mary A Oil Field
(38.5606°N, 98.9545°W)
Time: 16:54:18
(UTC+00:00)

STARLINK-53 - Pass Details

Date: 20 January 2020
Orbit: 528 x 531 km, 53.0° (Epoch: 26 February)

Event Time Altitude Azimuth Distance (km) Brightness Sun altitude
Exits shadow 11:32:45 43° 124° (ESE) 753 4.6 -26.6°
Drops below altitude 10° 11:36:23 10° 61° (ENE) 1,778 6.9 -25.9°
Sets 11:38:40 0° 55° (NE) 2,672 7.8 -25.4°
